Weather History for KCEF - January, 2014

Change the Weather History Date:

Sunday, January 5, 2014

  Actual Average Record
Temperature  
Mean Temperature 16 °F -  
Max Temperature 32 °F 33 °F 57 °F (2007)
Min Temperature -1 °F 19 °F -1 °F (2014)
Degree Days  
Heating Degree Days 50    
Moisture  
Dew Point 22 °F    
Average Humidity 87    
Maximum Humidity 100    
Minimum Humidity 64    
Precipitation  
Precipitation 0.02 in - - ()
Sea Level Pressure  
Sea Level Pressure 30.13 in    
Wind  
Wind Speed 3 mph (NNW)    
Max Wind Speed 6 mph    
Max Gust Speed -    
Visibility 6 miles    
Events Fog , Rain    
Averages and records for this station are not official NWS values.
T = Trace of Precipitation, MM = Missing Value Source: NWS Daily Summary

Daily Weather History Graph

Daily Weather History Graph

Search for Another Location

Airport or City:

Trip Planner

Search our weather history database for the weather conditions in past years. The results will help you decide how hot, cold, wet, or windy it might be!

Date:

Astronomy

Jan. 05, 2014 Rise Set
Actual Time 7:18 AM EST 4:32 PM EST
Civil Twilight 6:47 AM EST 5:04 PM EST
Nautical Twilight 6:12 AM EST 5:39 PM EST
Astronomical Twilight 5:38 AM EST 6:13 PM EST
Moon 9:53 AM EST (1/5) 10:03 PM EST (1/5)
Length of Visible Light 10h 16m
Length of Day
9h 13m
Waxing Crescent, 24% of the Moon is Illuminated
Jan 5
Waxing Crescent
Jan 7
First Quarter
Jan 15
Full
Jan 24
Last Quarter
Jan 30
New

Hourly Weather History & Observations

Time (EST) Temp. Windchill Dew Point Humidity Pressure Visibility Wind Dir Wind Speed Gust Speed Precip Events Conditions
12:58 AM 12.2 °F 4.3 °F 5.5 °F 75% 30.30 in 10.0 mi SSE 4.6 mph - N/A   Clear
1:58 AM 12.7 °F - 5.5 °F 73% 30.30 in 10.0 mi South 2.3 mph - N/A   Clear
2:58 AM 4.5 °F -6.3 °F 1.2 °F 86% 30.27 in 10.0 mi South 5.8 mph - N/A   Clear
3:58 AM 3.4 °F - 1.4 °F 91% 30.27 in 10.0 mi North 2.3 mph - N/A   Clear
4:58 AM 1.2 °F - -1.3 °F 89% 30.29 in 10.0 mi NE 2.3 mph - N/A   Clear
5:58 AM 1.2 °F -6.4 °F -1.3 °F 89% 30.31 in 10.0 mi NE 3.5 mph - N/A   Clear
6:58 AM -1.7 °F -9.7 °F -4.9 °F 86% 30.34 in 10.0 mi NE 3.5 mph - N/A   Clear
7:58 AM -0.9 °F -8.9 °F -4.0 °F 87% 30.34 in 10.0 mi NE 3.5 mph - N/A   Clear
8:58 AM 4.6 °F - 2.7 °F 91% 30.34 in 10.0 mi ENE 2.3 mph - N/A   Clear
9:58 AM 14.0 °F - 8.4 °F 78% 30.35 in 10.0 mi NNW 1.2 mph - N/A   Clear
10:58 AM 22.1 °F - 12.9 °F 68% 30.32 in 10.0 mi NNE 2.3 mph - N/A   Clear
11:58 AM 25.2 °F - 15.3 °F 66% 30.29 in 10.0 mi Calm Calm - N/A   Overcast
12:58 PM 27.0 °F - 17.1 °F 66% 30.27 in 10.0 mi West 2.3 mph - N/A   Mostly Cloudy
1:58 PM 27.9 °F - 17.8 °F 66% 30.24 in 10.0 mi Calm Calm - N/A   Scattered Clouds
2:58 PM 29.3 °F - 18.3 °F 64% 30.23 in 10.0 mi Variable 1.2 mph - N/A   Overcast
3:42 PM 30.2 °F - 21.2 °F 69% 30.21 in 10.0 mi WNW 2.3 mph - N/A   Overcast
3:50 PM 30.2 °F - 19.4 °F 64% 30.20 in 10.0 mi West 2.3 mph - N/A   Overcast
3:55 PM 30.2 °F - 21.2 °F 69% 30.20 in 10.0 mi WSW 1.2 mph - N/A   Overcast
3:58 PM 29.8 °F - 21.2 °F 70% 30.23 in 10.0 mi WSW 1.2 mph - N/A   Overcast
4:05 PM 30.2 °F - 21.2 °F 69% 30.19 in 10.0 mi WSW 2.3 mph - N/A   Overcast
4:17 PM 30.2 °F - 21.2 °F 69% 30.19 in 10.0 mi SW 2.3 mph - N/A   Overcast
4:25 PM 30.2 °F 26.7 °F 21.2 °F 69% 30.19 in 10.0 mi SW 3.5 mph - N/A   Overcast
4:26 PM 30.2 °F 25.4 °F 21.2 °F 69% 30.20 in 10.0 mi SW 4.6 mph - N/A   Overcast
4:30 PM 30.2 °F 26.7 °F 21.2 °F 69% 30.19 in 10.0 mi SW 3.5 mph - N/A   Overcast
4:37 PM 30.2 °F - 23.0 °F 75% 30.19 in 8.0 mi SW 2.3 mph - N/A   Overcast
4:46 PM 30.2 °F - 23.0 °F 75% 30.19 in 7.0 mi SSW 2.3 mph - N/A   Overcast
4:58 PM 28.9 °F - 24.6 °F 84% 30.22 in 9.0 mi Calm Calm - N/A   Overcast
5:00 PM 28.4 °F - 24.8 °F 86% 30.18 in 8.0 mi Calm Calm - N/A   Overcast
5:07 PM 28.4 °F - 24.8 °F 86% 30.18 in 9.0 mi WSW 1.2 mph - N/A   Overcast
5:24 PM 28.4 °F - 26.6 °F 93% 30.18 in 10.0 mi West 2.3 mph - N/A   Overcast
5:36 PM 28.4 °F - 26.6 °F 93% 30.17 in 10.0 mi NW 1.2 mph - N/A   Overcast
5:51 PM 28.4 °F - 28.4 °F 100% 30.17 in 9.0 mi NW 1.2 mph - N/A   Overcast
5:57 PM 28.4 °F - 26.6 °F 93% 30.17 in 4.0 mi WNW 2.3 mph - N/A   Light Freezing Drizzle
5:58 PM 28.2 °F - 27.3 °F 96% 30.20 in 4.0 mi Calm Calm - N/A   Light Freezing Drizzle
6:58 PM 27.9 °F 21.5 °F 27.5 °F 99% 30.17 in 3.0 mi North 5.8 mph - N/A   Light Freezing Drizzle
7:17 PM 28.4 °F 24.6 °F 28.4 °F 100% 30.14 in 3.0 mi North 3.5 mph - N/A   Light Freezing Drizzle
7:32 PM 28.4 °F 22.2 °F 28.4 °F 100% 30.12 in 2.0 mi North 5.8 mph - N/A   Light Freezing Drizzle
7:58 PM 28.2 °F - 27.9 °F 99% 30.12 in 1.2 mi NNE 2.3 mph - N/A   Overcast
8:29 PM 28.4 °F 22.2 °F 28.4 °F 100% 30.07 in 0.5 mi NW 5.8 mph - N/A Fog Light Freezing Drizzle
8:53 PM 28.4 °F - 28.4 °F 100% 30.05 in 0.5 mi North 2.3 mph - N/A Fog Light Freezing Drizzle
8:58 PM 28.4 °F - 28.4 °F 100% 30.08 in 0.5 mi NNW 2.3 mph - 0.00 in Fog Light Freezing Drizzle
9:15 PM 28.4 °F 23.3 °F 28.4 °F 100% 30.04 in 0.5 mi North 4.6 mph - N/A Fog Light Freezing Drizzle
9:26 PM 28.4 °F 22.2 °F 28.4 °F 100% 30.03 in 0.5 mi North 5.8 mph - N/A Fog Light Freezing Fog
9:58 PM 28.9 °F 23.9 °F 28.8 °F 99% 30.02 in 0.5 mi North 4.6 mph - 0.00 in Fog Light Freezing Fog
10:35 PM 30.2 °F 24.3 °F 28.4 °F 93% 29.95 in 0.5 mi North 5.8 mph - N/A Fog , Rain Light Freezing Rain
10:52 PM 30.2 °F 25.4 °F 30.2 °F 100% 29.92 in 1.0 mi North 4.6 mph - N/A Rain Light Freezing Rain
10:58 PM 30.2 °F 25.4 °F 30.0 °F 99% 29.95 in 1.2 mi North 4.6 mph - 0.00 in   Light Freezing Drizzle
10:59 PM 30.2 °F 26.7 °F 30.2 °F 100% 29.92 in 1.5 mi North 3.5 mph - N/A   Light Freezing Drizzle
11:03 PM 32.0 °F 28.7 °F 30.2 °F 93% 29.90 in 1.5 mi North 3.5 mph - N/A   Light Freezing Drizzle
11:16 PM 32.0 °F 28.7 °F 32.0 °F 100% 29.90 in 1.5 mi NW 3.5 mph - N/A Rain Light Freezing Rain
11:17 PM 32.0 °F 28.7 °F 32.0 °F 100% 29.90 in 1.8 mi NW 3.5 mph - N/A Rain Light Freezing Rain
11:22 PM 32.0 °F - 32.0 °F 100% 29.89 in 2.0 mi NW 2.3 mph - N/A Rain Light Freezing Rain
11:30 PM 32.0 °F 27.5 °F 32.0 °F 100% 29.88 in 2.5 mi NNW 4.6 mph - N/A Rain Light Freezing Rain
11:36 PM 32.0 °F - 32.0 °F 100% 29.87 in 3.0 mi North 2.3 mph - N/A   Light Freezing Drizzle
11:47 PM 32.0 °F 27.5 °F 32.0 °F 100% 29.86 in 3.0 mi NNE 4.6 mph - N/A   Overcast
11:48 PM 32.0 °F 27.5 °F 32.0 °F 100% 29.86 in 2.5 mi North 4.6 mph - N/A   Overcast
11:58 PM 32.0 °F 27.5 °F 31.8 °F 99% 29.88 in 2.5 mi NNE 4.6 mph - 0.02 in   Overcast